Miscellaneous Local Product
Issued by NWS Hastings, NE

Home | Current Version | Previous Version | Text Only | Print | Product List | Glossary Off
Versions: 1 2 3 4 5 6 7 8 9 10 11 12 13 14 15 16 17 18 19 20 21 22 23 24 25 26 27 28 29 30 31 32 33 34 35 36 37 38 39 40 41 42 43 44 45 46 47 48 49 50

912
AXUS43 KGID 280602
MISGRI

GID CWA HOURLY WEATHER ROUNDUP
NATIONAL WEATHER SERVICE HASTINGS NE
100 AM CDT SAT MAY 28 2016

NOTE: "FAIR" INDICATES FEW OR NO CLOUDS BELOW 12,000 FEET WITH NO
SIGNIFICANT WEATHER AND/OR OBSTRUCTIONS TO VISIBILITY.

...SOUTH CENTRAL NEBRASKA...

CITY           SKY/WX    TMP DP  RH WIND       PRES   REMARKS
GRAND ISLAND   CLOUDY    57  55  93 NW6       29.75R
HASTINGS       PTCLDY    57  54  89 SW6       29.77R
KEARNEY        CLOUDY    57  54  88 N5        29.79R
ORD            LGT RAIN  58  56  93 S9        29.75F
YORK           MOCLDY    57  54  88 NE12      29.71F
AURORA         CLOUDY    58  57  94 NE8       29.72R
LEXINGTON      RAIN      58  55  92 NE23G30   29.78S
HOLDREGE       RAIN      59  55  89 NE9       29.77R
HEBRON         CLOUDY    58  56  92 CALM      29.73S

...NEBRASKA PANHANDLE...

CITY           SKY/WX    TMP DP  RH WIND       PRES   REMARKS
CHADRON        PTCLDY    46  43  89 W6        29.88S
ALLIANCE       PTCLDY    43  43 100 W3        29.89S
SCOTTSBLUFF    CLEAR     47  43  86 N6        29.90F
SIDNEY         CLEAR     45  42  89 NW9       29.92R

...WESTERN AND NORTH CENTRAL NEBRASKA...

CITY           SKY/WX    TMP DP  RH WIND       PRES   REMARKS
VALENTINE      CLOUDY    54  50  86 NW6       29.83S
AINSWORTH      CLOUDY    56  52  86 N6        29.80F
ONEILL         RAIN      62  58  86 SE7       29.78R
BROKEN BOW     LGT RAIN  56  54  93 W5        29.80R
IMPERIAL       PTCLDY    53  48  83 NW14      29.84R
NORTH PLATTE   CLOUDY    55  52  89 N7        29.81R
MCCOOK         MOCLDY    54  50  86 W6        29.79R

...EASTERN NEBRASKA...

CITY           SKY/WX    TMP DP  RH WIND       PRES   REMARKS
NORFOLK        LGT RAIN  59  56  89 N9        29.68F
SO SIOUX CITY  LGT RAIN  62  60  93 NW6       29.73F
TEKAMAH        LGT RAIN  63  60  90 N7        29.69F
COLUMBUS       CLOUDY    57  48  72 CALM      29.71F
ALBION         DRIZZLE   57  54  88 NW6       29.74S
OMAHA EPPLEY   CLOUDY    63  59  87 N3        29.71F
OFFUTT AFB     CLOUDY    61  61 100 VRB1      29.71R
MILLARD        MOCLDY    62  59  89 CALM      29.71F
LINCOLN        MOCLDY    61  56  83 NE3       29.72F
NEBRASKA CITY  CLOUDY    60  60 100 E5        29.72F
BEATRICE       CLOUDY    58  56  93 E3        29.73F
FALLS CITY     LGT RAIN  61  60  97 VRB3      29.76S

...NORTHERN KANSAS...

CITY           SKY/WX    TMP DP  RH WIND       PRES   REMARKS
GOODLAND       CLEAR     47  45  93 W9        29.86R
HILL CITY      CLOUDY    59  54  83 NE9       29.78R
NORTON         PTCLDY    57  48  72 N16G24    29.73R
PHILLIPSBURG   RAIN      57  57 100 W5        29.79R
SMITH CENTER   LGT RAIN  55  54  94 W10       29.79R
BELOIT         MOCLDY    57  55  94 NE9       29.71F
HAYS           CLOUDY    55  48  76 E3        29.74S
RUSSELL        CLOUDY    57  55  93 CALM      29.71F
CONCORDIA      LGT RAIN  59  57  93 E3        29.75F
SALINA         RAIN      61  57  87 N13       29.72F
TOPEKA         CLOUDY    60  58  92 SE3       29.74R



USA.gov is the U.S. government's official web portal to all federal, state and local government web resources and services.